Please be sure to check the latest weather conditions by clicking the link and viewing our local weather information!

Check Weather

Welcome to Lakeway Airpark (3R9)

FromTheAir

We’re a community airpark nestled within the town of Lakeway, Texas (17 miles northwest of downtown Austin).

Lakeway Airpark, Inc. was formed by Lakeway residents and interested parties to own and manage Lakeway Airpark (3R9).

The Airpark is a privately owned not for profit public use airport for residents and guests of Lakeway. No public funds are used and the airport is supported by fees and fuel sales at the airport.

Lakeway Airpark is an unmanned facility open for use from Sunrise to Sunset seven days a week. Takeoffs and landings are not permitted at night, between Sunset and Sunrise, by City Ordinance.

Quick Weather Info

Available data for KAUS from the past 2 hours

metar

  • KAUS 301353Z 29005KT 10SM SCT110 SCT180 SCT250 22/19 A2973 RMK AO2 SLP059 T02220189 $
  • KAUS 301253Z COR 00000KT 10SM FEW080 FEW120 FEW250 20/19 A2970 RMK AO2 SLP048 T02000189 $

taf

  • KAUS 301352Z 3014/0118 03008KT P6SM SCT250 FM011200 02005KT P6SM OVC025

pireps 30sm

  • AUS UA /OV CWK045005/TM 1310/FL110/TP B737/TB LGT 110-SFC/RM FM ZHU AWC-WEB/KZHU